Regional Weather Roundup
Issued by NWS

Home | Current Version | Previous Version | Text Only | Print | Product List | Glossary On
Versions: 1 2 3 4 5 6 7 8 9 10 11 12 13 14 15 16 17 18 19 20 21 22 23 24 25 26 27 28 29 30 31 32 33 34 35 36 37 38 39 40 41 42 43 44 45 46 47 48 49 50
000
ASUS45 KTFX 020119
RWRMT
MONTANA HOURLY WEATHER ROUNDUP
NATIONAL WEATHER SERVICE GREAT FALLS MT
719 PM MDT WED OCT 1 2014

NOTE: "FAIR" INDICATES FEW OR NO CLOUDS BELOW 12000 FEET WITH NO
SIGNIFICANT WEATHER AND/OR OBSTRUCTIONS TO VISIBILITY.

* THESE STATIONS ARE NOT UNDER NWS QUALITY CONTROL. THEY DO NOT
   REPORT WEATHER SUCH AS PRECIPITATION OR FOG.

MTZ001>007-043-020200-
WEST OF THE DIVIDE
CITY           SKY/WX    TMP DP  RH WIND       PRES   REMARKS
KALISPELL      CLOUDY    52  36  55 SW12      30.02R
MISSOULA       CLOUDY    52  34  50 W13       30.10F
BUTTE          CLOUDY    46  23  40 W10G17    30.08R
MULLAN PASS    CLOUDY    37  34  89 SW9G17    30.07F WCI  30
* ESSEX        N/A       47  41  80 SE2        N/A
* LINCOLN      N/A       48  28  46 SW6G18     N/A
* LOOKOUT PASS N/A       44  37  76 SE8        N/A
* POLSON       N/A       50  29  44 SE2        N/A
* RONAN APT    MOCLDY    54  34  47 SW5        N/A
* SEELEY LAKE  N/A       50  31  48 W4G15      N/A
* THOMP F APT  CLEAR     46  22  39 NW5G14     N/A
* YAAK HILL    N/A       57  30  36 SW1G6      N/A
$$

MTZ008-052>055-020200-
SOUTHWEST MONTANA
CITY           SKY/WX    TMP DP  RH WIND       PRES   REMARKS
BOZEMAN        MOCLDY    52  30  43 W12       30.02R
DILLON         PTCLDY    46  25  44 W17       30.07R
W YELLOWSTONE  MOCLDY    39  32  76 SW5       30.10R WCI  35
* THREE FORKS  PTCLDY    55  45  69 W6         N/A
* BOULDER HILL N/A       45  19  35 SW4G11     N/A
* MONIDA PASS  N/A       42  24  49 NW13       N/A
* RAYNOLDS PAS N/A       43  39  86 NW2        N/A
* WHITEHALL    N/A       51  26  38 W8G17      N/A
* WISE RIVER   N/A       46  20  36 NW16G29    N/A
$$

MTZ009>010-012-014-046-048-049-054-020200-
EAST SLOPES AND CENTRAL MONTANA
CITY           SKY/WX    TMP DP  RH WIND       PRES   REMARKS
CUT BANK       PTCLDY    48  30  50 W23       29.86S
GREAT FALLS    CLEAR     52  28  40 W14       29.91R
HELENA         MOCLDY    54  27  35 W17G26    30.01R
MALMSTROM AFB  FAIR      52  32  47 SW15      29.92R
* CONRAD       PTCLDY    52  30  43 SW6        N/A
* DEARBORN     N/A       55  28  35 S16G26     N/A
* EAST GLACIER N/A       45  28  51 W20G35     N/A
* MONARCH      N/A       45  19  35 SW12G19    N/A
* PENDROY      N/A       47  21  36 W15G21     N/A
* ROGERS PASS  N/A       43  28  56 SE16G36    N/A
* SAINT MARY   N/A       49  28  44 S10G30     N/A
* SWEET GRASS  N/A       50  25  38 W22G29     N/A
* WHITE SULPH  N/A       46  24  42 W3G18      N/A
$$

MTZ011-013-016-021-035-040-045-047-050-051-020200-
NORTH CENTRAL MONTANA
CITY           SKY/WX    TMP DP  RH WIND       PRES   REMARKS
HAVRE          MOCLDY    57  34  42 W16       29.82S
LEWISTOWN      MOCLDY    50  37  61 S6        29.93S
* CHINOOK      CLEAR     55  39  55 SE3       29.82F
* FORT BENTON  CLEAR     55  28  35 SW8       29.88R
* CHESTER      N/A       56  28  34 W15G26     N/A
* DENTON       N/A       53  29  40 W14G19     N/A
* JUDITH GAP   N/A       49  25  39 W11        N/A
* LOMA         N/A       60  28  30 SW17G22    N/A
$$

MTZ017>020-022>027-061-062-020200-
NORTHEAST MONTANA
CITY           SKY/WX    TMP DP  RH WIND       PRES   REMARKS
GLASGOW        CLEAR     54  36  51 NW6       29.84S
GLENDIVE       CLOUDY    52  43  72 W8        29.90R
JORDAN         PTCLDY    50  36  59 NW6       29.89R
SIDNEY         CLOUDY    54  43  67 W6        29.87R
WOLF POINT     PTCLDY    52  39  61 NW7       29.85R
* BEAVER HILL  N/A       52  43  72 W9         N/A
* CIRCLE       N/A       52  44  74 N/A        N/A
* LINDSAY DVD  N/A       49  41  74 W7         N/A
* NAVAJO       N/A       51  37  59 NW9        N/A
$$

MTZ028>042-056>058-020200-
SOUTHCENTRAL AND SOUTHEAST MONTANA
CITY           SKY/WX    TMP DP  RH WIND       PRES   REMARKS
BAKER          FAIR      46  41  83 W6        29.90R
BILLINGS       PTCLDY    54  36  51 W5        29.96S
LIVINGSTON     PTCLDY    50  30  46 W14       29.98S
MILES CITY     PTCLDY    54  34  47 NW8       29.92R
* LAUREL APT   PTCLDY    52  37  57 N/A        N/A
* ROUNDUP APT  CLEAR     55  34  45 SW5        N/A
* ALZADA       N/A       47  38  71 W3         N/A
* HYSHAM       N/A       51  26  38 N/A        N/A
* LAME DEER    N/A       47  29  50 NW4        N/A
* REED POINT   N/A       54  29  38 W13        N/A
* ROSCOE HILL  N/A       49  18  29 SW4        N/A
$$

REGIONAL REPORTS...DAKOTAS
CITY           SKY/WX    TMP DP  RH WIND       PRES   REMARKS
WILLISTON      MOCLDY    54  45  72 W7        29.82R
DICKINSON      LGT RAIN  54  45  72 NW9       29.85R
BEACH          N/A       50  46  86 W7        29.89R
CROSBY         CLOUDY    52  48  86 W10       29.79R
TIOGA          MOCLDY    48  48 100 W7        29.83R
WATFORD CITY   MOCLDY    52  45  77 W5        29.83R
BISMARCK       CLOUDY    57  48  72 W8        29.82R
GRAND FORKS    CLOUDY    61  52  72 SW5       29.69R
FARGO          CLOUDY    63  50  63 W9        29.74R
BUFFALO SD     CLOUDY    52  43  72 NW7       29.85R
RAPID CITY     CLOUDY    52  41  66 N10       29.94R
$$

REGIONAL REPORTS...WYOMING/IDAHO/WASHINGTON
CITY           SKY/WX    TMP DP  RH WIND       PRES   REMARKS
GILLETTE       MOCLDY    45  37  74 W6        29.97R
SHERIDAN       PTCLDY    46  34  63 NW6       29.98R
CODY           MOCLDY    45  37  74 CALM      30.03R
YELLOWSTONE LA PTCLDY    34  30  85 CALM      30.12R
SALMON         PTCLDY    48  30  50 SW3       30.09R
MULLAN PASS    CLOUDY    37  34  89 SW9G17    30.07S WCI  30
SAND POINT     CLOUDY    57  36  46 SW12G17   30.01F
SPOKANE        MOCLDY    61  34  36 SW20      30.04F
$$

REGIONAL REPORTS...ALBERTA
CITY           SKY/WX    TMP DP  RH WIND       PRES   REMARKS
CALGARY        MOCLDY    45  34  65 N23G31    29.81R
LETHBRIDGE     PTCLDY    55  30  39 W30G37    29.77F
MEDICINE HAT   PTCLDY    54  34  47 W7        29.76S
EDMONTON       MOCLDY    43  30  60 NW10G17   29.83R
WATERTON GATE  N/A       48  28  46 SW16G28    N/A
CARDSTON       N/A       50  30  46 W10G24     N/A
MILK RIVER     N/A       50  28  43 W13        N/A
$$

REGIONAL REPORTS...SASKATCHEWAN
CITY           SKY/WX    TMP DP  RH WIND       PRES   REMARKS
SWIFT CURRENT  MOCLDY    50  34  54 W6        29.79R
MOOSE JAW      FAIR      48  41  77 W9        29.77R
REGINA         PTCLDY    48  41  77 W8        29.75R
VAL MARIE      N/A       48  36  63 NW1        N/A
ASSINIBOIA     N/A       46  37  71 W8         N/A
CORONACH       N/A       45  36  71 W8         N/A

$$




USA.gov is the U.S. government's official web portal to all federal, state and local government web resources and services.